User: anonymous   Login
Location: Unspecified
(0.0000°N, 0.0000°E)
Time: 15:35:32
(UTC+00:00)
Language:

AEHF 2 (USA 235) - Orbit

View from above orbital plane
View from above orbital plane
View from above satellite
View from above satellite

Ground track
Ground track

The orbit data is extracted from the following two-line orbital elements,

1 38254U 12019A   17201.31867242 0.00000000  00000-0  00000-0 0    02
2 38254   1.6057 345.3671 0003453 126.5287 233.5204  1.00270000    07
Epoch (UTC): 20 July 2017 07:38:53
Eccentricity: 0.0003453
inclination: 1.6057°
perigee height: 35772 km
apogee height: 35801 km
right ascension of ascending node: 345.3671°
argument of perigee: 126.5287°
revolutions per day: 1.00270000
mean anomaly at epoch: 233.5204°
orbit number at epoch: 0

The dashed part of the orbit path shows where the satellite is in the earth's shadow,  

DLR